| time (UTC) | temp C | wind direction | speed KPH | gust KPH | rain 1hr cm | rain 24hr cm | rain mn cm | humidity % | barometer mb |
| 20260506002921 | 18 | 157 | 0.0 | 0.0 | 0.00 | 0.00 | 0.00 | 99 | 1005.0 |
| 20260506002421 | 18 | 84 | 0.0 | 0.0 | 0.00 | 0.00 | 0.00 | 99 | 1005.0 |
| 20260506001921 | 18 | 87 | 0.0 | 0.0 | 0.00 | 0.00 | 0.00 | 99 | 1005.0 |
| 20260506001421 | 18 | 76 | 0.0 | 0.0 | 0.00 | 0.00 | 0.00 | 99 | 1005.0 |
| 20260506000921 | 18 | 95 | 0.0 | 0.0 | 0.00 | 0.00 | 0.00 | 99 | 1005.0 |
| 20260506000423 | 19 | 153 | 0.0 | 0.0 | 0.00 | 0.00 | 0.00 | 99 | 1005.0 |
| 20260505235921 | 19 | 190 | 0.0 | 0.0 | 0.00 | 0.00 | 0.00 | 99 | 1005.0 |
| 20260505235421 | 20 | 165 | 0.0 | 0.0 | 0.00 | 0.00 | 0.00 | 99 | 1005.0 |
| 20260505234921 | 20 | 161 | 0.0 | 0.0 | 0.00 | 0.00 | 0.00 | 99 | 1005.0 |
| 20260505234421 | 20 | 172 | 0.0 | 0.0 | 0.00 | 0.00 | 0.00 | 99 | 1005.0 |
| 20260505233921 | 20 | 92 | 0.0 | 0.0 | 0.00 | 0.00 | 0.00 | 99 | 1005.0 |
| 20260505233422 | 20 | 102 | 0.0 | 0.0 | 0.00 | 0.00 | 0.00 | 99 | 1005.0 |
| 20260505232922 | 20 | 177 | 0.0 | 0.0 | 0.00 | 0.00 | 0.00 | 99 | 1005.0 |
| 20260505232421 | 20 | 78 | 0.0 | 0.0 | 0.00 | 0.00 | 0.00 | 99 | 1005.0 |
| 20260505231921 | 20 | 327 | 0.0 | 0.0 | 0.00 | 0.00 | 0.00 | 99 | 1005.0 |
| 20260505231421 | 20 | 259 | 0.0 | 0.0 | 0.00 | 0.00 | 0.00 | 99 | 1005.0 |
| 20260505230921 | 20 | 136 | 0.0 | 0.0 | 0.00 | 0.00 | 0.00 | 99 | 1005.0 |
| 20260505230421 | 20 | 135 | 0.0 | 0.0 | 0.00 | 0.00 | 0.00 | 99 | 1005.0 |
| 20260505225921 | 20 | 161 | 0.0 | 0.0 | 0.00 | 0.00 | 0.00 | 99 | 1004.2 |
| 20260505225421 | 20 | 134 | 0.0 | 0.0 | 0.00 | 0.00 | 0.00 | 99 | 1004.2 |
| 20260505224921 | 20 | 83 | 0.0 | 0.0 | 0.00 | 0.00 | 0.00 | 99 | 1004.2 |
| 20260505224421 | 20 | 77 | 0.0 | 0.0 | 0.00 | 0.00 | 0.00 | 99 | 1004.1 |
| 20260505223921 | 20 | 96 | 0.0 | 0.0 | 0.00 | 0.00 | 0.00 | 99 | 1004.1 |
| 20260505223421 | 20 | 90 | 0.0 | 0.0 | 0.00 | 0.00 | 0.00 | 99 | 1004.1 |
| 20260505222921 | 20 | 182 | 0.0 | 0.0 | 0.00 | 0.00 | 0.00 | 99 | 1004.1 |
| 20260505222421 | 20 | 90 | 0.0 | 0.0 | 0.00 | 0.00 | 0.00 | 99 | 1005.0 |
| 20260505221921 | 21 | 49 | 0.0 | 1.6 | 0.00 | 0.00 | 0.00 | 99 | 1005.0 |
| 20260505221421 | 21 | 75 | 0.0 | 11.3 | 0.00 | 0.00 | 0.00 | 99 | 1005.0 |
| 20260505220921 | 23 | 73 | 1.6 | 12.9 | 0.00 | 0.00 | 0.00 | 99 | 1004.2 |
| 20260505220421 | 24 | 44 | 0.0 | 14.5 | 0.00 | 0.00 | 0.00 | 99 | 1004.1 |
| 20260505215921 | 25 | 22 | 1.6 | 14.5 | 0.00 | 0.00 | 0.00 | 99 | 1004.0 |
| 20260505215421 | 26 | 3 | 0.0 | 8.0 | 0.00 | 0.00 | 0.00 | 99 | 1004.0 |
| 20260505214921 | 26 | 303 | 0.0 | 3.2 | 0.00 | 0.00 | 0.00 | 99 | 1004.0 |
| 20260505214421 | 26 | 5 | 0.0 | 3.2 | 0.00 | 0.00 | 0.00 | 99 | 1004.0 |
| 20260505213921 | 26 | 280 | 0.0 | 1.6 | 0.00 | 0.00 | 0.00 | 99 | 1003.2 |
| 20260505213421 | 27 | 265 | 0.0 | 9.7 | 0.00 | 0.00 | 0.00 | 99 | 1003.1 |
| 20260505212921 | 27 | 262 | 0.0 | 9.7 | 0.00 | 0.00 | 0.00 | 99 | 1003.1 |
| 20260505212421 | 27 | 319 | 0.0 | 4.8 | 0.00 | 0.00 | 0.00 | 99 | 1003.0 |
| 20260505211921 | 27 | 267 | 0.0 | 0.0 | 0.00 | 0.00 | 0.00 | 99 | 1003.0 |
| 20260505211421 | 28 | 313 | 0.0 | 0.0 | 0.00 | 0.00 | 0.00 | 99 | 1003.0 |
| 20260505210921 | 28 | 267 | 0.0 | 0.0 | 0.00 | 0.00 | 0.00 | 99 | 1003.0 |
| 20260505210423 | 28 | 235 | 0.0 | 6.4 | 0.00 | 0.00 | 0.00 | 99 | 1003.0 |
| 20260505205921 | 28 | 277 | 0.0 | 6.4 | 0.00 | 0.00 | 0.00 | 99 | 1003.0 |
| 20260505205421 | 28 | 274 | 0.0 | 6.4 | 0.00 | 0.00 | 0.00 | 99 | 1003.0 |
| 20260505204921 | 29 | 263 | 0.0 | 4.8 | 0.00 | 0.00 | 0.00 | 99 | 1003.0 |
| 20260505204421 | 28 | 272 | 0.0 | 6.4 | 0.00 | 0.00 | 0.00 | 99 | 1003.0 |
| 20260505203921 | 28 | 283 | 0.0 | 12.9 | 0.00 | 0.00 | 0.00 | 99 | 1003.0 |
| 20260505203421 | 28 | 285 | 0.0 | 12.9 | 0.00 | 0.00 | 0.00 | 99 | 1003.0 |
| 20260505202921 | 28 | 283 | 0.0 | 1.6 | 0.00 | 0.00 | 0.00 | 99 | 1003.0 |
| 20260505202421 | 30 | 295 | 0.0 | 8.0 | 0.00 | 0.00 | 0.00 | 99 | 1003.0 |
| 20260505201921 | 30 | 232 | 0.0 | 8.0 | 0.00 | 0.00 | 0.00 | 99 | 1003.0 |
| 20260505201421 | 31 | 312 | 1.6 | 8.0 | 0.00 | 0.00 | 0.00 | 99 | 1003.0 |
| 20260505200921 | 31 | 285 | 0.0 | 6.4 | 0.00 | 0.00 | 0.00 | 99 | 1003.0 |
| 20260505200421 | 32 | 9 | 0.0 | 8.0 | 0.00 | 0.00 | 0.00 | 99 | 1003.0 |
| 20260505195921 | 33 | 320 | 1.6 | 8.0 | 0.00 | 0.00 | 0.00 | 99 | 1003.0 |
| 20260505195421 | 33 | 305 | 0.0 | 0.0 | 0.00 | 0.00 | 0.00 | 99 | 1003.0 |
| 20260505194921 | 33 | 239 | 0.0 | 4.8 | 0.00 | 0.00 | 0.00 | 99 | 1003.0 |
| 20260505194421 | 33 | 324 | 0.0 | 4.8 | 0.00 | 0.00 | 0.00 | 99 | 1003.0 |
| 20260505193921 | 33 | 256 | 0.0 | 8.0 | 0.00 | 0.00 | 0.00 | 99 | 1003.0 |
| 20260505193421 | 32 | 359 | 0.0 | 8.0 | 0.00 | 0.00 | 0.00 | 99 | 1003.0 |
| 20260505192921 | 32 | 270 | 0.0 | 14.5 | 0.00 | 0.00 | 0.00 | 99 | 1003.0 |
| 20260505192421 | 33 | 5 | 3.2 | 14.5 | 0.00 | 0.00 | 0.00 | 99 | 1003.0 |
| 20260505191921 | 33 | 271 | 0.0 | 16.1 | 0.00 | 0.00 | 0.00 | 99 | 1003.0 |
| 20260505191421 | 32 | 265 | 1.6 | 22.5 | 0.00 | 0.00 | 0.00 | 99 | 1003.0 |
| 20260505190921 | 33 | 12 | 4.8 | 22.5 | 0.00 | 0.00 | 0.00 | 99 | 1003.0 |
| 20260505190421 | 33 | 323 | 0.0 | 8.0 | 0.00 | 0.00 | 0.00 | 99 | 1003.1 |
| 20260505185921 | 32 | 320 | 0.0 | 6.4 | 0.00 | 0.00 | 0.00 | 99 | 1003.2 |
| 20260505185421 | 32 | 273 | 0.0 | 12.9 | 0.00 | 0.00 | 0.00 | 99 | 1003.1 |
| 20260505184921 | 32 | 291 | 0.0 | 12.9 | 0.00 | 0.00 | 0.00 | 99 | 1003.1 |
| 20260505184421 | 32 | 268 | 0.0 | 9.7 | 0.00 | 0.00 | 0.00 | 99 | 1003.2 |
| 20260505183921 | 33 | 272 | 1.6 | 9.7 | 0.00 | 0.00 | 0.00 | 99 | 1003.2 |
| 20260505183421 | 35 | 267 | 0.0 | 8.0 | 0.00 | 0.00 | 0.00 | 99 | 1003.1 |
| 20260505182921 | 34 | 315 | 0.0 | 8.0 | 0.00 | 0.00 | 0.00 | 99 | 1003.2 |
| 20260505182421 | 33 | 278 | 1.6 | 8.0 | 0.00 | 0.00 | 0.00 | 99 | 1004.0 |
| 20260505181921 | 33 | 234 | 0.0 | 8.0 | 0.00 | 0.00 | 0.00 | 99 | 1004.0 |
| 20260505180921 | 33 | 278 | 0.0 | 16.1 | 0.00 | 0.00 | 0.00 | 99 | 1004.0 |
| 20260505180421 | 33 | 274 | 0.0 | 8.0 | 0.00 | 0.00 | 0.00 | 99 | 1004.0 |
| 20260505175921 | 33 | 264 | 0.0 | 6.4 | 0.00 | 0.00 | 0.00 | 99 | 1004.0 |
| 20260505175421 | 33 | 353 | 0.0 | 16.1 | 0.00 | 0.00 | 0.00 | 99 | 1004.0 |
| 20260505174921 | 33 | 358 | 1.6 | 16.1 | 0.00 | 0.00 | 0.00 | 99 | 1004.0 |
| 20260505174421 | 34 | 356 | 0.0 | 8.0 | 0.00 | 0.00 | 0.00 | 99 | 1004.0 |
| 20260505173921 | 33 | 312 | 0.0 | 9.7 | 0.00 | 0.00 | 0.00 | 99 | 1004.0 |
| 20260505173421 | 33 | 319 | 1.6 | 9.7 | 0.00 | 0.00 | 0.00 | 99 | 1004.0 |
| 20260505172921 | 33 | 320 | 0.0 | 11.3 | 0.00 | 0.00 | 0.00 | 99 | 1004.0 |
| 20260505172421 | 33 | 283 | 1.6 | 11.3 | 0.00 | 0.00 | 0.00 | 99 | 1004.0 |
| 20260505171921 | 33 | 0 | 1.6 | 6.4 | 0.00 | 0.00 | 0.00 | 99 | 1004.0 |
| 20260505171421 | 33 | 282 | 0.0 | 8.0 | 0.00 | 0.00 | 0.00 | 99 | 1004.0 |
| 20260505170921 | 33 | 310 | 0.0 | 9.7 | 0.00 | 0.00 | 0.00 | 99 | 1004.0 |
| 20260505170421 | 33 | 285 | 0.0 | 9.7 | 0.00 | 0.00 | 0.00 | 99 | 1004.0 |
| 20260505165921 | 32 | 312 | 0.0 | 9.7 | 0.00 | 0.00 | 0.00 | 99 | 1004.0 |
| 20260505165421 | 32 | 317 | 0.0 | 9.7 | 0.00 | 0.00 | 0.00 | 99 | 1004.0 |
| 20260505164921 | 32 | 276 | 0.0 | 3.2 | 0.00 | 0.00 | 0.00 | 99 | 1004.0 |
| 20260505164421 | 32 | 270 | 0.0 | 9.7 | 0.00 | 0.00 | 0.00 | 99 | 1004.0 |
| 20260505163921 | 31 | 310 | 0.0 | 9.7 | 0.00 | 0.00 | 0.00 | 99 | 1004.0 |
| 20260505163421 | 32 | 270 | 0.0 | 9.7 | 0.00 | 0.00 | 0.00 | 99 | 1004.0 |
| 20260505162921 | 31 | 267 | 0.0 | 8.0 | 0.00 | 0.00 | 0.00 | 99 | 1004.0 |
| 20260505162421 | 32 | 226 | 0.0 | 8.0 | 0.00 | 0.00 | 0.00 | 99 | 1004.0 |
| 20260505161921 | 32 | 297 | 0.0 | 8.0 | 0.00 | 0.00 | 0.00 | 99 | 1004.0 |
| 20260505161421 | 32 | 311 | 0.0 | 8.0 | 0.00 | 0.00 | 0.00 | 99 | 1004.0 |
| 20260505160921 | 32 | 321 | 0.0 | 6.4 | 0.00 | 0.00 | 0.00 | 99 | 1004.0 |
| 20260505160421 | 32 | 1 | 0.0 | 6.4 | 0.00 | 0.00 | 0.00 | 99 | 1004.1 |
| 20260505152921 | 29 | 173 | 0.0 | 0.0 | 0.00 | 0.00 | 0.00 | 99 | 1005.0 |
| 20260505152421 | 28 | 235 | 0.0 | 3.2 | 0.00 | 0.00 | 0.00 | 99 | 1004.2 |
| 20260505151921 | 28 | 225 | 0.0 | 3.2 | 0.00 | 0.00 | 0.00 | 99 | 1005.0 |
| 20260505151421 | 28 | 230 | 0.0 | 0.0 | 0.00 | 0.00 | 0.00 | 99 | 1005.0 |
| 20260505150921 | 27 | 228 | 0.0 | 0.0 | 0.00 | 0.00 | 0.00 | 99 | 1005.0 |
| 20260505150421 | 27 | 227 | 0.0 | 0.0 | 0.00 | 0.00 | 0.00 | 99 | 1005.0 |
| 20260505140421 | 28 | 209 | 0.0 | 0.0 | 0.00 | 0.00 | 0.00 | 99 | 1005.1 |
| 20260505124921 | 23 | 255 | 0.0 | 0.0 | 0.00 | 0.00 | 0.00 | 99 | 1006.0 |
| 20260505124421 | 23 | 257 | 0.0 | 0.0 | 0.00 | 0.00 | 0.00 | 99 | 1005.2 |
| 20260505123921 | 23 | 226 | 0.0 | 0.0 | 0.00 | 0.00 | 0.00 | 99 | 1005.2 |
| 20260505123421 | 22 | 244 | 0.0 | 0.0 | 0.00 | 0.00 | 0.00 | 99 | 1005.2 |
| 20260505122920 | 22 | 274 | 0.0 | 0.0 | 0.00 | 0.00 | 0.00 | 99 | 1005.2 |
| 20260505122420 | 21 | 221 | 0.0 | 0.0 | 0.00 | 0.00 | 0.00 | 99 | 1005.2 |
| 20260505121920 | 20 | 242 | 0.0 | 0.0 | 0.00 | 0.00 | 0.00 | 99 | 1005.2 |
| 20260505121420 | 20 | 241 | 0.0 | 0.0 | 0.00 | 0.00 | 0.00 | 99 | 1005.2 |
| 20260505120921 | 19 | 229 | 0.0 | 4.8 | 0.00 | 0.00 | 0.00 | 99 | 1005.2 |
| 20260505120420 | 19 | 197 | 0.0 | 4.8 | 0.00 | 0.00 | 0.00 | 99 | 1005.2 |
| 20260505115920 | 19 | 199 | 0.0 | 0.0 | 0.00 | 0.00 | 0.00 | 99 | 1005.2 |
| 20260505115420 | 18 | 182 | 0.0 | 0.0 | 0.00 | 0.00 | 0.00 | 99 | 1005.2 |
| 20260505114920 | 18 | 214 | 0.0 | 0.0 | 0.00 | 0.00 | 0.00 | 99 | 1005.2 |
| 20260505114421 | 17 | 9 | 0.0 | 0.0 | 0.00 | 0.00 | 0.00 | 99 | 1006.0 |
| 20260505113920 | 17 | 147 | 0.0 | 0.0 | 0.00 | 0.00 | 0.00 | 99 | 1006.0 |
| 20260505113421 | 16 | 184 | 0.0 | 0.0 | 0.00 | 0.00 | 0.00 | 99 | 1005.2 |
| 20260505112921 | 15 | 231 | 0.0 | 0.0 | 0.00 | 0.00 | 0.00 | 99 | 1006.0 |
| 20260505112420 | 15 | 220 | 0.0 | 0.0 | 0.00 | 0.00 | 0.00 | 99 | 1005.2 |
| 20260505111920 | 13 | 317 | 0.0 | 0.0 | 0.00 | 0.00 | 0.00 | 99 | 1005.2 |
| 20260505111420 | 13 | 222 | 0.0 | 0.0 | 0.00 | 0.00 | 0.00 | 99 | 1005.2 |
| 20260505110920 | 12 | 219 | 0.0 | 0.0 | 0.00 | 0.00 | 0.00 | 99 | 1006.0 |
| 20260505110420 | 12 | 222 | 0.0 | 0.0 | 0.00 | 0.00 | 0.00 | 99 | 1006.0 |
| 20260505101920 | 10 | 192 | 0.0 | 0.0 | 0.00 | 0.00 | 0.00 | 99 | 1005.2 |
| 20260505101420 | 10 | 172 | 0.0 | 0.0 | 0.00 | 0.00 | 0.00 | 99 | 1005.2 |
| 20260505100920 | 10 | 115 | 0.0 | 0.0 | 0.00 | 0.00 | 0.00 | 99 | 1005.1 |
| 20260505100420 | 10 | 144 | 0.0 | 0.0 | 0.00 | 0.00 | 0.00 | 99 | 1005.1 |
| 20260505095920 | 10 | 231 | 0.0 | 0.0 | 0.00 | 0.00 | 0.00 | 99 | 1005.0 |
| 20260505095420 | 11 | 202 | 0.0 | 0.0 | 0.00 | 0.00 | 0.00 | 99 | 1005.0 |
| 20260505094920 | 11 | 72 | 0.0 | 0.0 | 0.00 | 0.00 | 0.00 | 99 | 1005.2 |
| 20260505094420 | 11 | 227 | 0.0 | 0.0 | 0.00 | 0.00 | 0.00 | 99 | 1005.0 |
| 20260505093920 | 11 | 147 | 0.0 | 0.0 | 0.00 | 0.00 | 0.00 | 99 | 1005.0 |
| 20260505093420 | 11 | 167 | 0.0 | 0.0 | 0.00 | 0.00 | 0.00 | 99 | 1005.2 |
| 20260505092920 | 11 | 151 | 0.0 | 0.0 | 0.00 | 0.00 | 0.00 | 99 | 1006.0 |
| 20260505092420 | 11 | 106 | 0.0 | 0.0 | 0.00 | 0.00 | 0.00 | 99 | 1005.1 |
| 20260505091920 | 11 | 331 | 0.0 | 0.0 | 0.00 | 0.00 | 0.00 | 99 | 1005.0 |
| 20260505091420 | 11 | 201 | 0.0 | 0.0 | 0.00 | 0.00 | 0.00 | 99 | 1005.0 |
| 20260505090920 | 11 | 258 | 0.0 | 0.0 | 0.00 | 0.00 | 0.00 | 99 | 1005.0 |
| 20260505090420 | 11 | 238 | 0.0 | 0.0 | 0.00 | 0.00 | 0.00 | 99 | 1005.0 |
| 20260505085920 | 11 | 213 | 0.0 | 0.0 | 0.00 | 0.00 | 0.00 | 99 | 1005.0 |
| 20260505085420 | 11 | 223 | 0.0 | 0.0 | 0.00 | 0.00 | 0.00 | 99 | 1005.0 |
| 20260505084920 | 11 | 193 | 0.0 | 0.0 | 0.00 | 0.00 | 0.00 | 99 | 1005.0 |
| 20260505084420 | 11 | 228 | 0.0 | 0.0 | 0.00 | 0.00 | 0.00 | 99 | 1005.0 |
| 20260505083920 | 11 | 225 | 0.0 | 0.0 | 0.00 | 0.00 | 0.00 | 99 | 1005.0 |
| 20260505083420 | 11 | 186 | 0.0 | 0.0 | 0.00 | 0.00 | 0.00 | 99 | 1005.0 |
| 20260505082920 | 12 | 186 | 0.0 | 0.0 | 0.00 | 0.00 | 0.00 | 99 | 1005.0 |
| 20260505082420 | 12 | 209 | 0.0 | 0.0 | 0.00 | 0.00 | 0.00 | 99 | 1005.0 |
| 20260505081920 | 12 | 224 | 0.0 | 0.0 | 0.00 | 0.00 | 0.00 | 99 | 1005.0 |
| 20260505081420 | 12 | 149 | 0.0 | 0.0 | 0.00 | 0.00 | 0.00 | 99 | 1005.0 |
| 20260505080920 | 12 | 175 | 0.0 | 0.0 | 0.00 | 0.00 | 0.00 | 99 | 1005.0 |
| 20260505080420 | 12 | 212 | 0.0 | 0.0 | 0.00 | 0.00 | 0.00 | 99 | 1005.0 |
| 20260505075920 | 12 | 222 | 0.0 | 0.0 | 0.00 | 0.00 | 0.00 | 99 | 1005.0 |
| 20260505075420 | 12 | 98 | 0.0 | 0.0 | 0.00 | 0.00 | 0.00 | 99 | 1005.0 |
| 20260505074920 | 12 | 221 | 0.0 | 0.0 | 0.00 | 0.00 | 0.00 | 99 | 1005.0 |
| 20260505074420 | 12 | 218 | 0.0 | 0.0 | 0.00 | 0.00 | 0.00 | 99 | 1005.0 |
| 20260505073920 | 12 | 176 | 0.0 | 0.0 | 0.00 | 0.00 | 0.00 | 99 | 1005.0 |
| 20260505073420 | 12 | 214 | 0.0 | 0.0 | 0.00 | 0.00 | 0.00 | 99 | 1005.0 |
| 20260505072920 | 12 | 226 | 0.0 | 0.0 | 0.00 | 0.00 | 0.00 | 99 | 1005.0 |
| 20260505072420 | 12 | 219 | 0.0 | 0.0 | 0.00 | 0.00 | 0.00 | 99 | 1005.0 |
| 20260505071920 | 12 | 216 | 0.0 | 0.0 | 0.00 | 0.00 | 0.00 | 99 | 1005.0 |
| 20260505071420 | 12 | 209 | 0.0 | 0.0 | 0.00 | 0.00 | 0.00 | 99 | 1005.0 |
| 20260505070921 | 12 | 234 | 0.0 | 0.0 | 0.00 | 0.00 | 0.00 | 99 | 1005.0 |
| 20260505070420 | 12 | 223 | 0.0 | 0.0 | 0.00 | 0.00 | 0.00 | 99 | 1005.0 |
| 20260505065920 | 12 | 186 | 0.0 | 0.0 | 0.00 | 0.00 | 0.00 | 99 | 1005.0 |
| 20260505065420 | 12 | 186 | 0.0 | 0.0 | 0.00 | 0.00 | 0.00 | 99 | 1005.0 |
| 20260505064920 | 12 | 223 | 0.0 | 0.0 | 0.00 | 0.00 | 0.00 | 99 | 1005.0 |
| 20260505064420 | 12 | 185 | 0.0 | 0.0 | 0.00 | 0.00 | 0.00 | 99 | 1005.0 |
| 20260505063920 | 12 | 177 | 0.0 | 0.0 | 0.00 | 0.00 | 0.00 | 99 | 1005.0 |
| 20260505063420 | 12 | 130 | 0.0 | 0.0 | 0.00 | 0.00 | 0.00 | 99 | 1005.1 |
| 20260505062920 | 12 | 128 | 0.0 | 0.0 | 0.00 | 0.00 | 0.00 | 99 | 1005.0 |
| 20260505062420 | 12 | 136 | 0.0 | 0.0 | 0.00 | 0.00 | 0.00 | 99 | 1005.0 |
| 20260505061920 | 12 | 175 | 0.0 | 0.0 | 0.00 | 0.00 | 0.00 | 99 | 1005.0 |
| 20260505061420 | 13 | 208 | 0.0 | 0.0 | 0.00 | 0.00 | 0.00 | 99 | 1005.0 |
| 20260505060920 | 13 | 169 | 0.0 | 0.0 | 0.00 | 0.00 | 0.00 | 99 | 1005.0 |
| 20260505060420 | 13 | 172 | 0.0 | 0.0 | 0.00 | 0.00 | 0.00 | 99 | 1005.0 |
| 20260505055920 | 13 | 214 | 0.0 | 0.0 | 0.00 | 0.00 | 0.00 | 99 | 1005.0 |
| 20260505055420 | 13 | 220 | 0.0 | 0.0 | 0.00 | 0.00 | 0.00 | 99 | 1005.0 |
| 20260505054920 | 13 | 242 | 0.0 | 0.0 | 0.00 | 0.00 | 0.00 | 99 | 1005.0 |
| 20260505054420 | 13 | 227 | 0.0 | 0.0 | 0.00 | 0.00 | 0.00 | 99 | 1005.0 |
| 20260505053920 | 14 | 268 | 0.0 | 0.0 | 0.00 | 0.00 | 0.00 | 99 | 1005.0 |
| 20260505053420 | 14 | 268 | 0.0 | 0.0 | 0.00 | 0.00 | 0.00 | 99 | 1005.0 |
| 20260505052920 | 14 | 255 | 0.0 | 0.0 | 0.00 | 0.00 | 0.00 | 99 | 1005.1 |
| 20260505052420 | 14 | 261 | 0.0 | 3.2 | 0.00 | 0.00 | 0.00 | 99 | 1005.0 |
| 20260505051920 | 14 | 234 | 0.0 | 3.2 | 0.00 | 0.00 | 0.00 | 99 | 1005.1 |
| 20260505051420 | 14 | 227 | 0.0 | 0.0 | 0.00 | 0.00 | 0.00 | 99 | 1006.0 |
| 20260505050920 | 14 | 257 | 0.0 | 4.8 | 0.00 | 0.00 | 0.00 | 99 | 1005.2 |
| 20260505050420 | 14 | 267 | 0.0 | 4.8 | 0.00 | 0.00 | 0.00 | 99 | 1006.0 |
| 20260505041420 | 15 | 228 | 0.0 | 1.6 | 0.00 | 0.00 | 0.00 | 99 | 1006.0 |
| 20260505040920 | 15 | 293 | 0.0 | 6.4 | 0.00 | 0.00 | 0.00 | 99 | 1005.1 |
| 20260505040420 | 15 | 266 | 0.0 | 6.4 | 0.00 | 0.00 | 0.00 | 99 | 1005.0 |
| 20260505035920 | 15 | 216 | 0.0 | 0.0 | 0.00 | 0.00 | 0.00 | 99 | 1005.0 |
| 20260505035420 | 15 | 270 | 0.0 | 0.0 | 0.00 | 0.00 | 0.00 | 99 | 1005.0 |
| 20260505034920 | 15 | 233 | 0.0 | 0.0 | 0.00 | 0.00 | 0.00 | 99 | 1005.0 |
| 20260505034420 | 15 | 235 | 0.0 | 0.0 | 0.00 | 0.00 | 0.00 | 99 | 1005.0 |
| 20260505033920 | 15 | 310 | 0.0 | 0.0 | 0.00 | 0.00 | 0.00 | 99 | 1005.2 |
| 20260505033420 | 14 | 269 | 0.0 | 0.0 | 0.00 | 0.00 | 0.00 | 99 | 1005.1 |
| 20260505032920 | 13 | 211 | 0.0 | 0.0 | 0.00 | 0.00 | 0.00 | 99 | 1005.2 |
| 20260505032420 | 13 | 287 | 0.0 | 1.6 | 0.00 | 0.00 | 0.00 | 99 | 1006.0 |
| 20260505031920 | 13 | 256 | 0.0 | 1.6 | 0.00 | 0.00 | 0.00 | 99 | 1006.0 |
| 20260505031420 | 13 | 31 | 0.0 | 0.0 | 0.00 | 0.00 | 0.00 | 99 | 1005.2 |
| 20260505030920 | 14 | 27 | 0.0 | 0.0 | 0.00 | 0.00 | 0.00 | 99 | 1005.2 |
| 20260505030420 | 14 | 282 | 0.0 | 0.0 | 0.00 | 0.00 | 0.00 | 99 | 1005.2 |
| 20260505025920 | 15 | 54 | 0.0 | 0.0 | 0.00 | 0.00 | 0.00 | 99 | 1005.2 |
| 20260505025420 | 15 | 210 | 0.0 | 0.0 | 0.00 | 0.00 | 0.00 | 99 | 1005.2 |
| 20260505024920 | 15 | 210 | 0.0 | 0.0 | 0.00 | 0.00 | 0.00 | 99 | 1005.1 |
| 20260505024420 | 14 | 208 | 0.0 | 0.0 | 0.00 | 0.00 | 0.00 | 99 | 1005.2 |
| 20260505023920 | 14 | 165 | 0.0 | 0.0 | 0.00 | 0.00 | 0.00 | 99 | 1006.0 |
| 20260505023420 | 14 | 227 | 0.0 | 0.0 | 0.00 | 0.00 | 0.00 | 99 | 1006.0 |
| 20260505022920 | 14 | 205 | 0.0 | 0.0 | 0.00 | 0.00 | 0.00 | 99 | 1006.0 |
| 20260505022420 | 14 | 208 | 0.0 | 0.0 | 0.00 | 0.00 | 0.00 | 99 | 1006.0 |
| 20260505021920 | 13 | 224 | 0.0 | 0.0 | 0.00 | 0.00 | 0.00 | 99 | 1005.2 |
| 20260505021420 | 13 | 213 | 0.0 | 3.2 | 0.00 | 0.00 | 0.00 | 99 | 1005.2 |
| 20260505020920 | 13 | 227 | 0.0 | 3.2 | 0.00 | 0.00 | 0.00 | 99 | 1006.0 |
| 20260505020420 | 13 | 234 | 0.0 | 0.0 | 0.00 | 0.00 | 0.00 | 99 | 1006.0 |
| 20260505015920 | 13 | 216 | 0.0 | 0.0 | 0.00 | 0.00 | 0.00 | 99 | 1006.0 |
| 20260505015420 | 13 | 247 | 0.0 | 0.0 | 0.00 | 0.00 | 0.00 | 99 | 1006.0 |
| 20260505014920 | 13 | 235 | 0.0 | 0.0 | 0.00 | 0.00 | 0.00 | 99 | 1006.0 |
| 20260505014420 | 13 | 201 | 0.0 | 0.0 | 0.00 | 0.00 | 0.00 | 99 | 1005.2 |
| 20260505013920 | 13 | 208 | 0.0 | 0.0 | 0.00 | 0.00 | 0.00 | 99 | 1005.2 |
| 20260505013420 | 13 | 222 | 0.0 | 0.0 | 0.00 | 0.00 | 0.00 | 99 | 1005.1 |
| 20260505012920 | 13 | 219 | 0.0 | 0.0 | 0.00 | 0.00 | 0.00 | 99 | 1005.0 |
| 20260505012420 | 13 | 201 | 0.0 | 0.0 | 0.00 | 0.00 | 0.00 | 99 | 1005.0 |
| 20260505011920 | 13 | 190 | 0.0 | 0.0 | 0.00 | 0.00 | 0.00 | 99 | 1005.0 |
| 20260505011420 | 13 | 179 | 0.0 | 0.0 | 0.00 | 0.00 | 0.00 | 99 | 1005.0 |
| 20260505010920 | 13 | 168 | 0.0 | 0.0 | 0.00 | 0.00 | 0.00 | 99 | 1005.0 |
| 20260505010420 | 13 | 226 | 0.0 | 0.0 | 0.00 | 0.00 | 0.00 | 99 | 1005.0 |
| 20260505005920 | 13 | 166 | 0.0 | 0.0 | 0.00 | 0.00 | 0.00 | 99 | 1005.0 |
| 20260505005420 | 14 | 242 | 0.0 | 0.0 | 0.00 | 0.00 | 0.00 | 99 | 1005.0 |
| 20260505004920 | 14 | 205 | 0.0 | 0.0 | 0.00 | 0.00 | 0.00 | 99 | 1005.0 |
| 20260505004420 | 14 | 209 | 0.0 | 0.0 | 0.00 | 0.00 | 0.00 | 99 | 1005.0 |
| 20260505003920 | 15 | 180 | 0.0 | 0.0 | 0.00 | 0.00 | 0.00 | 99 | 1005.0 |
| 20260505003420 | 15 | 180 | 0.0 | 0.0 | 0.00 | 0.00 | 0.00 | 99 | 1005.0 |